M I D A S
Marine Information and Data Acquisition System
Tripno 1828 of the Zeeleeuw from 2009-12-17 07:39:48 to 2009-12-17 15:53:17
Back to CruiseResearch ActivitiesStationsMapUnderway DataData graphs

EquipmentUnitsComments
TimeDGPSUTC
LatitudeDGPSDM.mWGS84
LongitudeDGPSDM.mWGS84
SpeedMeteo Stationm/sRelative wind speed
DirectionMeteo StationdegRelative wind direction
TemperatureMeteo Stationdeg CelciusAir temperature
PressureMeteo StationPaAtmospheric pressure
HumidityMeteo Station%Relative humidity
Missing or incorrect values are displayed as -999
Metereological data collected by the RV Zeeleeuw from 2009-12-17 07:59:56 to 2009-12-17 16:00:49
                                                                                    Next 1000 lines
Time Latitude Longitude Speed Direction Temperature Pressure Humidity
2009-12-17 08:00:07 51°13.662 2°55.957 3.4 11 -0.8 100450 36
2009-12-17 08:00:12 51°13.662 2°55.956 3.5 355 -0.8 100450 36
2009-12-17 08:00:17 51°13.663 2°55.954 4 3 -0.8 100450 35
2009-12-17 08:00:22 51°13.664 2°55.951 3.6 12 -0.8 100450 35
2009-12-17 08:00:27 51°13.665 2°55.948 2.6 358 -0.8 100450 40
2009-12-17 08:00:32 51°13.666 2°55.944 3.2 17 -0.8 100450 40
2009-12-17 08:00:38 51°13.667 2°55.938 3.7 14 -0.8 100450 34
2009-12-17 08:00:43 51°13.668 2°55.933 2.8 23 -0.8 100450 34
2009-12-17 08:00:49 51°13.67 2°55.926 2.3 29 -0.8 100450 39
2009-12-17 08:00:55 51°13.672 2°55.919 1.9 21 -0.8 100450 39
2009-12-17 08:01:00 51°13.673 2°55.913 3.6 22 -0.8 100450 34
2009-12-17 08:01:06 51°13.674 2°55.905 3.1 22 -0.8 100450 34
2009-12-17 08:01:11 51°13.676 2°55.899 2.8 23 -0.8 100450 39
2009-12-17 08:01:16 51°13.677 2°55.892 4 16 -0.8 100450 39
2009-12-17 08:01:20 51°13.678 2°55.887 4 14 -0.8 100450 39
2009-12-17 08:01:26 51°13.68 2°55.878 3.3 16 -0.8 100450 39
2009-12-17 08:01:31 51°13.681 2°55.871 2.5 9 -0.8 100450 40
2009-12-17 08:01:36 51°13.683 2°55.863 1.5 15 -0.8 100450 40
2009-12-17 08:01:40 51°13.684 2°55.857 1.1 11 -0.8 100460 39
2009-12-17 08:01:46 51°13.686 2°55.848 1.6 22 -0.8 100460 39
2009-12-17 08:01:51 51°13.688 2°55.841 0.9 27 -0.8 100450 36
2009-12-17 08:01:56 51°13.69 2°55.833 2.2 40 -0.8 100450 36
2009-12-17 08:02:00 51°13.692 2°55.826 2.2 36 -0.8 100460 37
2009-12-17 08:02:06 51°13.695 2°55.817 1.8 21 -0.8 100460 37
2009-12-17 08:02:11 51°13.698 2°55.809 1.7 31 -0.8 100460 37
2009-12-17 08:02:16 51°13.701 2°55.801 1.3 13 -0.8 100460 37
2009-12-17 08:02:20 51°13.704 2°55.794 1.5 36 -0.8 100460 40
2009-12-17 08:02:26 51°13.708 2°55.785 1.5 28 -0.8 100460 40
2009-12-17 08:02:31 51°13.712 2°55.777 2.7 9 -0.8 100460 33
2009-12-17 08:02:36 51°13.716 2°55.769 1.9 15 -0.8 100460 33
2009-12-17 08:02:40 51°13.72 2°55.763 1.9 25 -0.8 100460 40
2009-12-17 08:02:46 51°13.725 2°55.753 1.1 22 -0.8 100460 40
2009-12-17 08:02:51 51°13.73 2°55.746 1.2 15 -0.8 100460 34
2009-12-17 08:02:56 51°13.734 2°55.738 0.9 18 -0.8 100460 34
2009-12-17 08:03:00 51°13.738 2°55.732 1.5 22 -0.8 100460 38
2009-12-17 08:03:06 51°13.744 2°55.723 2.6 16 -0.8 100460 38
2009-12-17 08:03:11 51°13.749 2°55.715 1.3 1 -0.8 100460 40
2009-12-17 08:03:16 51°13.755 2°55.708 1.5 15 -0.8 100460 40
2009-12-17 08:03:20 51°13.759 2°55.702 1.2 25 -0.8 100460 41
2009-12-17 08:03:26 51°13.765 2°55.693 0.5 30 -0.8 100460 41
2009-12-17 08:03:31 51°13.771 2°55.686 0.2 13 -0.8 100470 35
2009-12-17 08:03:36 51°13.776 2°55.679 0.1 18 -0.8 100470 35
2009-12-17 08:03:40 51°13.781 2°55.674 0.3 13 -0.8 100470 36
2009-12-17 08:03:46 51°13.788 2°55.667 0.1 21 -0.8 100470 36
2009-12-17 08:03:51 51°13.794 2°55.661 0.1 20 -0.8 100470 37
2009-12-17 08:03:56 51°13.8 2°55.655 0.1 21 -0.8 100470 37
2009-12-17 08:04:00 51°13.805 2°55.651 -999 21 -0.8 100470 37
2009-12-17 08:04:06 51°13.812 2°55.646 -999 39 -0.8 100470 37
2009-12-17 08:04:11 51°13.819 2°55.642 -999 23 -0.8 100470 37
2009-12-17 08:04:16 51°13.826 2°55.638 -999 307 -0.8 100470 37
2009-12-17 08:04:20 51°13.831 2°55.636 -999 264 -0.8 100460 37
2009-12-17 08:04:26 51°13.839 2°55.633 0.1 310 -0.8 100460 37
2009-12-17 08:04:31 51°13.846 2°55.631 0.1 270 -0.8 100470 37
2009-12-17 08:04:36 51°13.853 2°55.629 0.4 51 -0.8 100470 37
2009-12-17 08:04:40 51°13.859 2°55.629 0.2 22 -0.8 100470 37
2009-12-17 08:04:46 51°13.867 2°55.628 0.1 307 -0.8 100470 37
2009-12-17 08:04:51 51°13.873 2°55.629 0.1 257 -0.8 100470 37
2009-12-17 08:04:55 51°13.878 2°55.629 0.5 303 -0.8 100470 37
2009-12-17 08:05:01 51°13.885 2°55.63 0.2 21 -0.8 100470 37
2009-12-17 08:05:06 51°13.891 2°55.632 0.1 302 -0.8 100470 37
2009-12-17 08:05:11 51°13.896 2°55.634 0.1 258 -0.8 100470 37
2009-12-17 08:05:16 51°13.902 2°55.636 1 307 -0.8 100470 37
2009-12-17 08:05:20 51°13.906 2°55.638 0.2 254 -0.8 100470 37
2009-12-17 08:05:26 51°13.911 2°55.641 0.9 303 -0.8 100470 37
2009-12-17 08:05:31 51°13.916 2°55.643 1.6 19 -0.8 100470 37
2009-12-17 08:05:36 51°13.92 2°55.646 1.4 306 -0.8 100470 37
2009-12-17 08:05:40 51°13.923 2°55.648 2.4 249 -0.8 100470 37
2009-12-17 08:05:46 51°13.927 2°55.651 1.7 306 -0.8 100470 37
2009-12-17 08:05:51 51°13.93 2°55.654 1.6 18 -0.8 100470 41
2009-12-17 08:05:55 51°13.932 2°55.656 2.6 311 -0.8 100470 41
2009-12-17 08:06:00 51°13.935 2°55.657 0.9 17 -0.8 100470 35
2009-12-17 08:06:05 51°13.937 2°55.659 0.9 309 -0.8 100470 35
2009-12-17 08:06:10 51°13.938 2°55.66 1.5 21 -0.8 100470 40
2009-12-17 08:06:15 51°13.939 2°55.66 1.4 304 -0.8 100470 40
2009-12-17 08:06:20 51°13.94 2°55.66 2.2 25 -0.8 100470 36
2009-12-17 08:06:24 51°13.94 2°55.66 2.2 305 -0.8 100470 36
2009-12-17 08:06:29 51°13.941 2°55.658 3.3 25 -0.8 100470 37
2009-12-17 08:06:34 51°13.941 2°55.656 4.2 307 -0.8 100470 37
2009-12-17 08:06:39 51°13.941 2°55.654 4.2 26 -0.8 100470 41
2009-12-17 08:06:44 51°13.942 2°55.651 3.1 310 -0.8 100470 41
2009-12-17 08:06:48 51°13.942 2°55.648 3.1 18 -0.8 100470 41
2009-12-17 08:06:54 51°13.943 2°55.643 2.7 310 -0.8 100470 41
2009-12-17 08:06:59 51°13.944 2°55.639 2.7 257 -0.8 100470 39
2009-12-17 08:07:03 51°13.944 2°55.635 2.6 303 -0.8 100470 39
2009-12-17 08:07:08 51°13.946 2°55.629 2.9 259 -0.8 100470 34
2009-12-17 08:07:13 51°13.948 2°55.623 1.8 302 -0.8 100470 34
2009-12-17 08:07:18 51°13.951 2°55.617 1.7 265 -0.8 100460 34
2009-12-17 08:07:23 51°13.954 2°55.611 1.4 304 -0.8 100460 34
2009-12-17 08:07:27 51°13.958 2°55.606 1.4 253 -0.8 100470 34
2009-12-17 08:07:32 51°13.963 2°55.6 1.5 310 -0.8 100470 34
2009-12-17 08:07:37 51°13.968 2°55.593 1.9 250 -0.7 100470 36
2009-12-17 08:07:42 51°13.974 2°55.586 0.8 311 -0.7 100470 36
2009-12-17 08:07:47 51°13.98 2°55.579 0.7 254 -0.8 100470 41
2009-12-17 08:07:52 51°13.987 2°55.571 1.3 305 -0.8 100470 41
2009-12-17 08:07:57 51°13.995 2°55.563 0.8 18 -0.8 100470 40
2009-12-17 08:08:02 51°14.002 2°55.554 1.9 309 -0.8 100470 40
2009-12-17 08:08:07 51°14.01 2°55.545 1.4 259 -0.8 100470 36
2009-12-17 08:08:12 51°14.019 2°55.536 1.1 303 -0.8 100470 36
2009-12-17 08:08:17 51°14.027 2°55.526 0.7 21 -0.7 100470 40
2009-12-17 08:08:22 51°14.036 2°55.516 0.7 304 -0.7 100470 40
2009-12-17 08:08:27 51°14.045 2°55.506 1.4 26 -0.7 100470 41
2009-12-17 08:08:32 51°14.054 2°55.495 1.9 303 -0.7 100470 41
2009-12-17 08:08:37 51°14.064 2°55.485 1.2 21 -0.7 100470 38
2009-12-17 08:08:42 51°14.073 2°55.474 1.2 308 -0.7 100470 38
2009-12-17 08:08:47 51°14.083 2°55.463 1.2 20 -0.7 100460 34
2009-12-17 08:08:52 51°14.093 2°55.453 1 309 -0.7 100460 34
2009-12-17 08:08:56 51°14.1 2°55.444 1 21 -0.7 100470 35
2009-12-17 08:09:02 51°14.112 2°55.431 0.7 303 -0.7 100470 35
2009-12-17 08:09:07 51°14.122 2°55.42 0.7 19 -0.7 100460 36
2009-12-17 08:09:12 51°14.132 2°55.409 0.6 304 -0.7 100460 36
2009-12-17 08:09:17 51°14.142 2°55.398 0.7 20 -0.7 100470 33
2009-12-17 08:09:22 51°14.152 2°55.388 1.5 321 -0.7 100470 33
2009-12-17 08:09:27 51°14.162 2°55.376 2.3 25 -0.7 100470 37
2009-12-17 08:09:32 51°14.172 2°55.366 1.9 324 -0.7 100470 37
2009-12-17 08:09:37 51°14.182 2°55.355 1.6 329 -0.7 100460 37
2009-12-17 08:09:42 51°14.192 2°55.344 2.4 308 -0.7 100460 37
2009-12-17 08:09:47 51°14.202 2°55.333 2.5 26 -0.7 100460 41
2009-12-17 08:09:52 51°14.212 2°55.321 3.1 310 -0.7 100460 41
2009-12-17 08:09:56 51°14.22 2°55.311 1.2 19 -0.7 100460 38
2009-12-17 08:10:02 51°14.232 2°55.298 1.7 304 -0.7 100460 38
2009-12-17 08:10:07 51°14.242 2°55.286 2.3 18 -0.7 100460 40
2009-12-17 08:10:12 51°14.251 2°55.272 1.8 309 -0.7 100460 40
2009-12-17 08:10:17 51°14.259 2°55.259 1.3 26 -0.7 100460 33
2009-12-17 08:10:22 51°14.268 2°55.245 1.2 310 -0.7 100460 33
2009-12-17 08:10:27 51°14.277 2°55.23 1.1 320 -0.7 100460 35
2009-12-17 08:10:32 51°14.285 2°55.215 1.3 308 -0.7 100460 35
2009-12-17 08:10:36 51°14.292 2°55.204 2.2 319 -0.7 100460 38
2009-12-17 08:10:42 51°14.302 2°55.185 2.7 312 -0.7 100460 38
2009-12-17 08:10:47 51°14.31 2°55.17 3.1 320 -0.7 100460 38
2009-12-17 08:10:52 51°14.318 2°55.154 3.5 304 -0.7 100460 38
2009-12-17 08:10:57 51°14.325 2°55.137 3.6 21 -0.7 100460 35
2009-12-17 08:11:02 51°14.333 2°55.12 4.7 307 -0.7 100460 35
2009-12-17 08:11:07 51°14.34 2°55.102 4.9 25 -0.7 100460 35
2009-12-17 08:11:12 51°14.348 2°55.084 5.5 304 -0.7 100460 35
2009-12-17 08:11:17 51°14.355 2°55.066 5.2 320 -0.7 100460 35
2009-12-17 08:11:22 51°14.363 2°55.047 4.6 323 -0.7 100460 35
2009-12-17 08:11:27 51°14.369 2°55.028 4.9 24 -0.7 100460 40
2009-12-17 08:11:32 51°14.375 2°55.007 4.8 320 -0.7 100460 40
2009-12-17 08:11:37 51°14.38 2°54.986 5.2 23 -0.7 100460 39
2009-12-17 08:11:42 51°14.384 2°54.964 6.8 306 -0.7 100460 39
2009-12-17 08:11:47 51°14.388 2°54.941 7.1 19 -0.7 100450 39
2009-12-17 08:11:52 51°14.39 2°54.918 7.5 307 -0.7 100450 39
2009-12-17 08:11:56 51°14.392 2°54.899 7 24 -0.7 100460 39
2009-12-17 08:12:02 51°14.393 2°54.87 7.2 307 -0.7 100460 39
2009-12-17 08:12:07 51°14.393 2°54.846 8.3 20 -0.7 100450 36
2009-12-17 08:12:12 51°14.392 2°54.822 8.6 305 -0.7 100450 36
2009-12-17 08:12:17 51°14.39 2°54.797 8.9 24 -0.6 100450 36
2009-12-17 08:12:22 51°14.387 2°54.773 9 307 -0.6 100450 36
2009-12-17 08:12:27 51°14.384 2°54.748 9 316 -0.6 100450 37
2009-12-17 08:12:32 51°14.379 2°54.724 9.9 304 -0.6 100450 37
2009-12-17 08:12:37 51°14.373 2°54.7 9.4 316 -0.6 100440 39
2009-12-17 08:12:42 51°14.367 2°54.676 8.9 306 -0.6 100440 39
2009-12-17 08:12:47 51°14.361 2°54.653 9.4 318 -0.6 100440 36
2009-12-17 08:12:52 51°14.354 2°54.629 9.4 306 -0.6 100440 36
2009-12-17 08:12:57 51°14.347 2°54.605 10.2 19 -0.6 100440 39
2009-12-17 08:13:02 51°14.339 2°54.582 9.4 309 -0.6 100440 39
2009-12-17 08:13:07 51°14.333 2°54.558 9.9 23 -0.6 100440 37
2009-12-17 08:13:12 51°14.326 2°54.534 8.9 306 -0.6 100440 37
2009-12-17 08:13:17 51°14.319 2°54.51 8.4 22 -0.7 100440 38
2009-12-17 08:13:22 51°14.312 2°54.486 8.5 307 -0.7 100440 38
2009-12-17 08:13:27 51°14.304 2°54.462 8.7 319 -0.7 100440 36
2009-12-17 08:13:32 51°14.297 2°54.438 8.9 307 -0.7 100440 36
2009-12-17 08:13:36 51°14.291 2°54.419 9.9 316 -0.6 100440 38
2009-12-17 08:13:42 51°14.283 2°54.39 9.7 306 -0.6 100440 38
2009-12-17 08:13:47 51°14.275 2°54.366 10.2 23 -0.6 100440 38
2009-12-17 08:13:52 51°14.268 2°54.342 9.4 308 -0.6 100440 38
2009-12-17 08:13:57 51°14.261 2°54.317 9 25 -0.6 100430 37
2009-12-17 08:14:02 51°14.255 2°54.293 7.8 304 -0.6 100430 37
2009-12-17 08:14:07 51°14.248 2°54.269 8.4 317 -0.6 100450 36
2009-12-17 08:14:12 51°14.24 2°54.245 8.2 309 -0.6 100450 36
2009-12-17 08:14:16 51°14.235 2°54.225 9.7 316 -0.6 100420 35
2009-12-17 08:14:22 51°14.226 2°54.196 8.2 308 -0.6 100420 35
2009-12-17 08:14:27 51°14.219 2°54.172 8.2 317 -0.6 100440 36
2009-12-17 08:14:32 51°14.212 2°54.148 7.9 308 -0.6 100440 36
2009-12-17 08:14:36 51°14.206 2°54.129 8.3 316 -0.6 100440 39
2009-12-17 08:14:42 51°14.197 2°54.099 9.1 305 -0.6 100440 39
2009-12-17 08:14:47 51°14.19 2°54.075 8.7 318 -0.6 100440 39
2009-12-17 08:14:52 51°14.183 2°54.051 8.6 310 -0.6 100440 39
2009-12-17 08:14:57 51°14.175 2°54.027 8 317 -0.5 100450 36
2009-12-17 08:15:02 51°14.168 2°54.003 9 310 -0.5 100450 36
2009-12-17 08:15:07 51°14.16 2°53.979 8.6 321 -0.5 100440 39
2009-12-17 08:15:12 51°14.153 2°53.955 8.8 305 -0.5 100440 39
2009-12-17 08:15:17 51°14.145 2°53.931 8.9 320 -0.5 100450 36
2009-12-17 08:15:22 51°14.138 2°53.906 8.6 309 -0.5 100450 36
2009-12-17 08:15:27 51°14.13 2°53.882 9 316 -0.5 100450 38
2009-12-17 08:15:32 51°14.124 2°53.857 9.3 309 -0.5 100450 38
2009-12-17 08:15:37 51°14.115 2°53.834 7.8 318 -0.5 100450 36
2009-12-17 08:15:42 51°14.109 2°53.809 8.5 305 -0.5 100450 36
2009-12-17 08:15:47 51°14.101 2°53.785 9.3 23 -0.6 100450 37
2009-12-17 08:15:52 51°14.094 2°53.76 10.2 306 -0.6 100450 37
2009-12-17 08:15:56 51°14.089 2°53.74 9.8 317 -0.6 100460 36
2009-12-17 08:16:02 51°14.08 2°53.711 10.3 304 -0.6 100460 36
2009-12-17 08:16:07 51°14.073 2°53.687 10.1 22 -0.6 100440 37
2009-12-17 08:16:12 51°14.065 2°53.662 8.7 305 -0.6 100440 37
2009-12-17 08:16:16 51°14.06 2°53.642 8.4 22 -0.6 100440 36
2009-12-17 08:16:22 51°14.051 2°53.613 8.5 307 -0.6 100440 36
2009-12-17 08:16:27 51°14.044 2°53.589 8.1 26 -0.6 100440 38
2009-12-17 08:16:32 51°14.036 2°53.565 8.9 310 -0.6 100440 38
2009-12-17 08:16:37 51°14.029 2°53.54 10.3 318 -0.6 100430 37
2009-12-17 08:16:42 51°14.022 2°53.515 9.8 310 -0.6 100430 37
2009-12-17 08:16:47 51°14.015 2°53.49 10 22 -0.6 100440 37
2009-12-17 08:16:52 51°14.007 2°53.466 9.2 309 -0.6 100440 37
2009-12-17 08:16:57 51°14.001 2°53.441 9.6 24 -0.6 100450 35
2009-12-17 08:17:02 51°13.993 2°53.416 9.4 309 -0.6 100450 35
2009-12-17 08:17:07 51°13.987 2°53.391 9.2 21 -0.6 100430 38
2009-12-17 08:17:12 51°13.979 2°53.366 10 308 -0.6 100430 38
2009-12-17 08:17:16 51°13.973 2°53.347 9.5 318 -0.6 100430 39
2009-12-17 08:17:22 51°13.965 2°53.316 10.3 309 -0.6 100430 39
2009-12-17 08:17:27 51°13.958 2°53.292 9.8 319 -0.6 100440 38
2009-12-17 08:17:32 51°13.951 2°53.267 9.8 310 -0.6 100440 38
2009-12-17 08:17:37 51°13.944 2°53.242 9.1 19 -0.6 100440 37
2009-12-17 08:17:42 51°13.937 2°53.217 10.1 306 -0.6 100440 37
2009-12-17 08:17:47 51°13.929 2°53.192 9.5 315 -0.6 100440 36
2009-12-17 08:17:52 51°13.923 2°53.167 10.9 306 -0.6 100440 36
2009-12-17 08:17:57 51°13.915 2°53.142 9.7 25 -0.6 100420 39
2009-12-17 08:18:02 51°13.908 2°53.117 9.5 307 -0.6 100420 39
2009-12-17 08:18:07 51°13.901 2°53.092 9.7 317 -0.6 100440 36
2009-12-17 08:18:12 51°13.894 2°53.067 9.5 303 -0.6 100440 36
2009-12-17 08:18:17 51°13.886 2°53.042 9.5 316 -0.6 100430 38
2009-12-17 08:18:22 51°13.879 2°53.017 9.5 311 -0.6 100430 38
2009-12-17 08:18:27 51°13.872 2°52.992 10 20 -0.6 100440 37
2009-12-17 08:18:32 51°13.864 2°52.967 9.8 308 -0.6 100440 37
2009-12-17 08:18:37 51°13.857 2°52.941 10.1 21 -0.6 100430 37
2009-12-17 08:18:42 51°13.85 2°52.916 9.7 308 -0.6 100430 37
2009-12-17 08:18:47 51°13.843 2°52.891 9.6 317 -0.6 100440 37
2009-12-17 08:18:52 51°13.835 2°52.866 10.5 308 -0.6 100440 37
2009-12-17 08:18:56 51°13.829 2°52.846 9.6 25 -0.6 100430 39
2009-12-17 08:19:02 51°13.82 2°52.816 10.5 310 -0.6 100430 39
2009-12-17 08:19:07 51°13.814 2°52.791 10.3 20 -0.6 100430 39
2009-12-17 08:19:12 51°13.806 2°52.766 9.7 304 -0.6 100430 39
2009-12-17 08:19:17 51°13.799 2°52.741 11.1 20 -0.5 100430 36
2009-12-17 08:19:22 51°13.792 2°52.716 10.7 304 -0.5 100430 36
2009-12-17 08:19:27 51°13.784 2°52.691 10.3 22 -0.5 100430 37
2009-12-17 08:19:32 51°13.777 2°52.666 10.8 311 -0.5 100430 37
2009-12-17 08:19:36 51°13.771 2°52.646 10.1 22 -0.5 100430 37
2009-12-17 08:19:42 51°13.762 2°52.616 9.8 310 -0.5 100430 37
2009-12-17 08:19:47 51°13.755 2°52.59 7.8 26 -0.5 100430 39
2009-12-17 08:19:52 51°13.747 2°52.566 9.6 308 -0.5 100430 39
2009-12-17 08:19:57 51°13.74 2°52.54 9.1 24 -0.5 100430 36
2009-12-17 08:20:02 51°13.732 2°52.515 8.2 306 -0.5 100430 36
2009-12-17 08:20:07 51°13.725 2°52.49 8.5 24 -0.5 100430 38
2009-12-17 08:20:12 51°13.718 2°52.465 7.9 309 -0.5 100430 38
2009-12-17 08:20:17 51°13.71 2°52.44 8 315 -0.5 100430 36
2009-12-17 08:20:22 51°13.703 2°52.415 7.2 303 -0.5 100430 36
2009-12-17 08:20:27 51°13.696 2°52.39 9.8 317 -0.5 100430 38
2009-12-17 08:20:32 51°13.689 2°52.365 9.4 305 -0.5 100430 38
2009-12-17 08:20:37 51°13.681 2°52.34 7.8 315 -0.5 100440 39
2009-12-17 08:20:42 51°13.674 2°52.314 8.2 309 -0.5 100440 39
2009-12-17 08:20:47 51°13.667 2°52.289 8.9 20 -0.5 100430 38
2009-12-17 08:20:52 51°13.659 2°52.264 9.2 308 -0.5 100430 38
2009-12-17 08:20:57 51°13.652 2°52.239 9.9 315 -0.5 100430 40
2009-12-17 08:21:02 51°13.644 2°52.214 9.3 309 -0.5 100430 40
2009-12-17 08:21:07 51°13.637 2°52.189 9.6 317 -0.5 100420 38
2009-12-17 08:21:12 51°13.629 2°52.164 9.1 311 -0.5 100420 38
2009-12-17 08:21:16 51°13.623 2°52.144 10 20 -0.5 100430 39
2009-12-17 08:21:22 51°13.613 2°52.115 9.7 310 -0.5 100430 39
2009-12-17 08:21:27 51°13.605 2°52.09 8.9 23 -0.5 100420 39
2009-12-17 08:21:32 51°13.596 2°52.066 7.5 307 -0.5 100420 39
2009-12-17 08:21:37 51°13.588 2°52.042 8.8 318 -0.5 100420 40
2009-12-17 08:21:42 51°13.58 2°52.018 7.1 308 -0.5 100420 40
2009-12-17 08:21:47 51°13.57 2°51.994 8.6 318 -0.6 100430 36
2009-12-17 08:21:52 51°13.563 2°51.969 7.2 308 -0.6 100430 36
2009-12-17 08:21:56 51°13.555 2°51.95 7.3 315 -0.6 100440 40
2009-12-17 08:22:02 51°13.545 2°51.921 7 310 -0.6 100440 40
2009-12-17 08:22:07 51°13.536 2°51.898 8.7 319 -0.6 100440 40
2009-12-17 08:22:12 51°13.528 2°51.873 7.6 309 -0.6 100440 40
2009-12-17 08:22:16 51°13.52 2°51.854 7.8 21 -0.5 100440 39
2009-12-17 08:22:22 51°13.51 2°51.825 8.4 309 -0.5 100440 39
2009-12-17 08:22:27 51°13.5 2°51.802 7.4 317 -0.5 100440 36
2009-12-17 08:22:32 51°13.493 2°51.777 8.5 303 -0.5 100440 36
2009-12-17 08:22:37 51°13.483 2°51.754 6.6 319 -0.5 100440 38
2009-12-17 08:22:42 51°13.475 2°51.729 9.1 305 -0.5 100440 38
2009-12-17 08:22:47 51°13.465 2°51.706 8 319 -0.6 100450 37
2009-12-17 08:22:52 51°13.458 2°51.681 9.8 305 -0.6 100450 37
2009-12-17 08:22:57 51°13.449 2°51.657 9.3 316 -0.5 100450 36
2009-12-17 08:23:02 51°13.44 2°51.633 7.4 303 -0.5 100450 36
2009-12-17 08:23:07 51°13.432 2°51.609 8.8 315 -0.5 100440 39
2009-12-17 08:23:12 51°13.422 2°51.586 6.3 304 -0.5 100440 39
2009-12-17 08:23:16 51°13.416 2°51.566 8.1 319 -0.5 100440 40
2009-12-17 08:23:22 51°13.406 2°51.538 8.1 306 -0.5 100440 40
2009-12-17 08:23:27 51°13.396 2°51.515 7.8 320 -0.5 100440 38
2009-12-17 08:23:32 51°13.388 2°51.491 8 312 -0.5 100440 38
2009-12-17 08:23:36 51°13.38 2°51.473 8.6 317 -0.5 100450 40
2009-12-17 08:23:42 51°13.37 2°51.444 8.6 306 -0.5 100450 40
2009-12-17 08:23:47 51°13.361 2°51.421 8.9 24 -0.5 100440 39
2009-12-17 08:23:52 51°13.352 2°51.398 7.1 310 -0.5 100440 39
2009-12-17 08:23:57 51°13.344 2°51.374 7.9 318 -0.5 100420 39
2009-12-17 08:24:02 51°13.335 2°51.351 7.9 311 -0.5 100420 39
2009-12-17 08:24:07 51°13.326 2°51.327 6.1 317 -0.5 100430 37
2009-12-17 08:24:12 51°13.319 2°51.304 7.7 307 -0.5 100430 37
2009-12-17 08:24:17 51°13.309 2°51.281 8.1 320 -0.5 100440 40
2009-12-17 08:24:22 51°13.301 2°51.257 8.8 304 -0.5 100440 40
2009-12-17 08:24:27 51°13.292 2°51.235 6.5 318 -0.5 100440 36
2009-12-17 08:24:32 51°13.284 2°51.21 9.6 303 -0.5 100440 36
2009-12-17 08:24:37 51°13.275 2°51.188 7 319 -0.5 100440 38
2009-12-17 08:24:42 51°13.267 2°51.164 9.2 309 -0.5 100440 38
2009-12-17 08:24:47 51°13.258 2°51.141 7.6 318 -0.5 100440 38
2009-12-17 08:24:52 51°13.25 2°51.116 9.3 310 -0.5 100440 38
2009-12-17 08:24:57 51°13.241 2°51.093 8.7 20 -0.5 100440 36
2009-12-17 08:25:02 51°13.233 2°51.069 7.7 311 -0.5 100440 36
2009-12-17 08:25:07 51°13.225 2°51.046 8.3 24 -0.5 100440 39
2009-12-17 08:25:12 51°13.215 2°51.022 8.1 304 -0.5 100440 39
2009-12-17 08:25:17 51°13.208 2°50.998 9.4 20 -0.5 100440 39
2009-12-17 08:25:22 51°13.198 2°50.976 6.9 308 -0.5 100440 39
2009-12-17 08:25:27 51°13.191 2°50.951 7.6 315 -0.5 100430 39
2009-12-17 08:25:32 51°13.182 2°50.929 6.5 310 -0.5 100430 39
2009-12-17 08:25:36 51°13.176 2°50.909 6.2 23 -0.5 100450 37
2009-12-17 08:25:42 51°13.165 2°50.881 7.6 311 -0.5 100450 37
2009-12-17 08:25:47 51°13.157 2°50.858 6.7 317 -0.5 100440 37
2009-12-17 08:25:52 51°13.149 2°50.834 7.5 311 -0.5 100440 37
2009-12-17 08:25:57 51°13.14 2°50.811 7 23 -0.5 100420 35
2009-12-17 08:26:02 51°13.132 2°50.787 7 308 -0.5 100420 35
2009-12-17 08:26:07 51°13.123 2°50.764 9.1 316 -0.5 100440 37
2009-12-17 08:26:12 51°13.116 2°50.739 8 308 -0.5 100440 37
2009-12-17 08:26:17 51°13.106 2°50.717 7.2 317 -0.5 100430 36
2009-12-17 08:26:22 51°13.099 2°50.692 9.3 312 -0.5 100430 36
2009-12-17 08:26:27 51°13.09 2°50.669 9.3 21 -0.5 100440 36
2009-12-17 08:26:32 51°13.081 2°50.645 8.7 309 -0.5 100440 36
2009-12-17 08:26:37 51°13.073 2°50.622 6.1 20 -0.5 100440 37
2009-12-17 08:26:42 51°13.064 2°50.598 8 304 -0.5 100440 37
2009-12-17 08:26:47 51°13.056 2°50.574 9.1 23 -0.5 100440 36
2009-12-17 08:26:52 51°13.047 2°50.551 7.8 306 -0.5 100440 36
2009-12-17 08:26:57 51°13.04 2°50.527 9.2 18 -0.5 100430 38
2009-12-17 08:27:02 51°13.03 2°50.504 6.7 305 -0.5 100430 38
2009-12-17 08:27:07 51°13.023 2°50.48 7.6 20 -0.5 100440 39
2009-12-17 08:27:12 51°13.014 2°50.457 6.7 309 -0.5 100440 39
2009-12-17 08:27:17 51°13.005 2°50.433 5.5 22 -0.5 100440 39
2009-12-17 08:27:22 51°12.997 2°50.409 6.8 310 -0.5 100440 39
2009-12-17 08:27:27 51°12.988 2°50.386 8.5 315 -0.5 100440 40
2009-12-17 08:27:32 51°12.981 2°50.362 7.8 304 -0.5 100440 40
2009-12-17 08:27:37 51°12.971 2°50.34 8.6 26 -0.5 100440 35
2009-12-17 08:27:42 51°12.963 2°50.315 8.8 311 -0.5 100440 35
2009-12-17 08:27:47 51°12.955 2°50.292 8.5 315 -0.5 100430 37
2009-12-17 08:27:52 51°12.946 2°50.269 8.6 311 -0.5 100430 37
2009-12-17 08:27:57 51°12.937 2°50.246 8.3 318 -0.4 100440 38
2009-12-17 08:28:02 51°12.929 2°50.222 9.2 308 -0.4 100440 38
2009-12-17 08:28:07 51°12.92 2°50.199 8.7 316 -0.4 100430 38
2009-12-17 08:28:12 51°12.912 2°50.175 9.4 307 -0.4 100430 38
2009-12-17 08:28:17 51°12.903 2°50.152 8.6 22 -0.5 100440 37
2009-12-17 08:28:22 51°12.895 2°50.128 9.5 307 -0.5 100440 37
2009-12-17 08:28:27 51°12.886 2°50.105 9.1 318 -0.5 100430 39
2009-12-17 08:28:32 51°12.878 2°50.081 9.2 305 -0.5 100430 39
2009-12-17 08:28:37 51°12.869 2°50.058 8.5 316 -0.5 100420 39
2009-12-17 08:28:42 51°12.862 2°50.034 9.1 305 -0.5 100420 39
2009-12-17 08:28:47 51°12.853 2°50.012 8.8 24 -0.5 100440 37
2009-12-17 08:28:52 51°12.844 2°49.988 8.3 309 -0.5 100440 37
2009-12-17 08:28:57 51°12.836 2°49.964 8.3 315 -0.5 100440 36
2009-12-17 08:29:02 51°12.827 2°49.941 8.6 309 -0.5 100440 36
2009-12-17 08:29:07 51°12.819 2°49.917 9 315 -0.5 100440 37
2009-12-17 08:29:12 51°12.811 2°49.894 8.6 311 -0.5 100440 37
2009-12-17 08:29:16 51°12.804 2°49.875 9 20 -0.5 100430 36
2009-12-17 08:29:22 51°12.794 2°49.847 7.5 310 -0.5 100430 36
2009-12-17 08:29:27 51°12.785 2°49.824 9.1 23 -0.5 100440 37
2009-12-17 08:29:32 51°12.777 2°49.8 9.5 310 -0.5 100440 37
2009-12-17 08:29:37 51°12.769 2°49.777 9.4 24 -0.5 100440 39
2009-12-17 08:29:42 51°12.76 2°49.753 8.4 306 -0.5 100440 39
2009-12-17 08:29:47 51°12.752 2°49.73 9.9 26 -0.5 100430 37
2009-12-17 08:29:52 51°12.744 2°49.706 10.2 304 -0.5 100430 37
2009-12-17 08:29:57 51°12.735 2°49.683 9.8 318 -0.5 100430 39
2009-12-17 08:30:02 51°12.727 2°49.659 9.3 309 -0.5 100430 39
2009-12-17 08:30:07 51°12.719 2°49.635 8.4 18 -0.6 100430 40
2009-12-17 08:30:12 51°12.71 2°49.612 7.9 307 -0.6 100430 40
2009-12-17 08:30:17 51°12.702 2°49.589 8.5 21 -0.5 100450 35
2009-12-17 08:30:22 51°12.693 2°49.565 8.4 306 -0.5 100450 35
2009-12-17 08:30:27 51°12.685 2°49.541 8.8 315 -0.6 100440 39
2009-12-17 08:30:32 51°12.676 2°49.518 8.6 304 -0.6 100440 39
2009-12-17 08:30:37 51°12.667 2°49.494 8.5 316 -0.5 100440 37
2009-12-17 08:30:42 51°12.659 2°49.47 8.6 303 -0.5 100440 37
2009-12-17 08:30:47 51°12.65 2°49.447 8.4 319 -0.5 100440 38
2009-12-17 08:30:52 51°12.642 2°49.423 7.8 308 -0.5 100440 38
2009-12-17 08:30:57 51°12.633 2°49.4 7.8 22 -0.5 100430 38
2009-12-17 08:31:02 51°12.625 2°49.376 9.1 302 -0.5 100430 38
2009-12-17 08:31:07 51°12.616 2°49.352 9.4 23 -0.5 100430 36
2009-12-17 08:31:12 51°12.608 2°49.328 8.2 308 -0.5 100430 36
2009-12-17 08:31:17 51°12.599 2°49.305 8.3 315 -0.5 100440 38
2009-12-17 08:31:22 51°12.591 2°49.281 8.7 308 -0.5 100440 38
2009-12-17 08:31:27 51°12.582 2°49.257 9.2 21 -0.6 100430 39
2009-12-17 08:31:32 51°12.574 2°49.233 9.7 307 -0.6 100430 39
2009-12-17 08:31:37 51°12.566 2°49.21 8.6 317 -0.6 100440 37
2009-12-17 08:31:42 51°12.556 2°49.187 9.2 310 -0.6 100440 37
2009-12-17 08:31:47 51°12.549 2°49.162 9.2 18 -0.5 100430 37
2009-12-17 08:31:52 51°12.54 2°49.139 8.3 307 -0.5 100430 37
2009-12-17 08:31:57 51°12.532 2°49.115 8.6 317 -0.5 100450 38
2009-12-17 08:32:02 51°12.523 2°49.091 8.6 309 -0.5 100450 38
2009-12-17 08:32:07 51°12.515 2°49.068 8.7 23 -0.5 100430 38
2009-12-17 08:32:12 51°12.506 2°49.044 9.2 306 -0.5 100430 38
2009-12-17 08:32:16 51°12.499 2°49.026 8.4 316 -0.5 100440 36
2009-12-17 08:32:22 51°12.489 2°48.996 9.1 310 -0.5 100440 36
2009-12-17 08:32:27 51°12.48 2°48.974 8.5 315 -0.5 100440 36
2009-12-17 08:32:32 51°12.472 2°48.949 8.9 309 -0.5 100440 36
2009-12-17 08:32:37 51°12.463 2°48.926 8.7 317 -0.5 100440 39
2009-12-17 08:32:42 51°12.455 2°48.902 9.1 308 -0.5 100440 39
2009-12-17 08:32:47 51°12.446 2°48.879 7.8 22 -0.5 100430 37
2009-12-17 08:32:52 51°12.438 2°48.855 8.8 304 -0.5 100430 37
2009-12-17 08:32:57 51°12.429 2°48.832 10.1 318 -0.5 100440 37
2009-12-17 08:33:02 51°12.421 2°48.808 10 306 -0.5 100440 37
2009-12-17 08:33:07 51°12.413 2°48.785 9.6 25 -0.5 100440 40
2009-12-17 08:33:12 51°12.404 2°48.761 9.7 306 -0.5 100440 40
2009-12-17 08:33:17 51°12.396 2°48.738 9.8 19 -0.4 100450 39
2009-12-17 08:33:22 51°12.387 2°48.714 8.1 308 -0.4 100450 39
2009-12-17 08:33:27 51°12.379 2°48.691 9.5 23 -0.4 100440 37
2009-12-17 08:33:32 51°12.37 2°48.667 9.3 311 -0.4 100440 37
2009-12-17 08:33:37 51°12.362 2°48.643 8.9 316 -0.5 100430 40
2009-12-17 08:33:42 51°12.353 2°48.621 8.7 281 -0.5 100430 40
2009-12-17 08:33:47 51°12.345 2°48.597 8.9 24 -0.5 100440 36
2009-12-17 08:33:52 51°12.336 2°48.574 9.5 308 -0.5 100440 36
2009-12-17 08:33:57 51°12.328 2°48.55 8.9 26 -0.5 100440 38
2009-12-17 08:34:02 51°12.319 2°48.527 8.7 311 -0.5 100440 38
2009-12-17 08:34:07 51°12.312 2°48.503 8.8 316 -0.5 100430 36
2009-12-17 08:34:12 51°12.302 2°48.481 8 304 -0.5 100430 36
2009-12-17 08:34:16 51°12.296 2°48.462 7.9 21 -0.5 100430 37
2009-12-17 08:34:22 51°12.286 2°48.434 9.4 307 -0.5 100430 37
2009-12-17 08:34:27 51°12.277 2°48.411 8 20 -0.5 100430 38
2009-12-17 08:34:32 51°12.269 2°48.388 10 307 -0.5 100430 38
2009-12-17 08:34:37 51°12.26 2°48.365 7.9 20 -0.5 100430 36
2009-12-17 08:34:42 51°12.252 2°48.341 9.6 305 -0.5 100430 36
2009-12-17 08:34:47 51°12.243 2°48.318 9.4 315 -0.5 100440 38
2009-12-17 08:34:52 51°12.235 2°48.295 10.5 304 -0.5 100440 38
2009-12-17 08:34:57 51°12.227 2°48.272 9.2 19 -0.5 100440 40
2009-12-17 08:35:02 51°12.218 2°48.248 9.7 306 -0.5 100440 40
2009-12-17 08:35:07 51°12.21 2°48.225 9.4 21 -0.5 100430 40
2009-12-17 08:35:12 51°12.201 2°48.201 9 307 -0.5 100430 40
2009-12-17 08:35:17 51°12.193 2°48.178 8.9 21 -0.5 100440 39
2009-12-17 08:35:22 51°12.185 2°48.155 9 306 -0.5 100440 39
2009-12-17 08:35:27 51°12.176 2°48.131 8.8 19 -0.5 100430 37
2009-12-17 08:35:32 51°12.167 2°48.108 8.7 307 -0.5 100430 37
2009-12-17 08:35:37 51°12.159 2°48.085 8.5 22 -0.5 100450 38
2009-12-17 08:35:42 51°12.15 2°48.062 8.1 281 -0.5 100450 38
2009-12-17 08:35:47 51°12.142 2°48.038 9.4 315 -0.5 100430 36
2009-12-17 08:35:52 51°12.133 2°48.015 8.7 308 -0.5 100430 36
2009-12-17 08:35:57 51°12.125 2°47.991 9.2 21 -0.5 100440 38
2009-12-17 08:36:02 51°12.116 2°47.969 7.5 308 -0.5 100440 38
2009-12-17 08:36:07 51°12.108 2°47.945 7.6 21 -0.5 100440 39
2009-12-17 08:36:12 51°12.099 2°47.922 7.7 311 -0.5 100440 39
2009-12-17 08:36:17 51°12.091 2°47.898 7.2 22 -0.5 100430 39
2009-12-17 08:36:22 51°12.082 2°47.875 8.7 305 -0.5 100430 39
2009-12-17 08:36:27 51°12.074 2°47.851 8.5 20 -0.5 100440 36
2009-12-17 08:36:32 51°12.065 2°47.829 9 309 -0.5 100440 36
2009-12-17 08:36:37 51°12.057 2°47.804 8.9 22 -0.5 100440 40
2009-12-17 08:36:42 51°12.048 2°47.781 8.2 287 -0.5 100440 40
2009-12-17 08:36:47 51°12.04 2°47.758 7.1 24 -0.5 100430 38
2009-12-17 08:36:52 51°12.032 2°47.734 8.8 304 -0.5 100430 38
2009-12-17 08:36:57 51°12.022 2°47.712 6.9 316 -0.5 100430 38
2009-12-17 08:37:02 51°12.015 2°47.687 7.1 303 -0.5 100430 38
2009-12-17 08:37:07 51°12.005 2°47.665 7.2 19 -0.4 100440 38
2009-12-17 08:37:12 51°11.998 2°47.641 8 307 -0.4 100440 38
2009-12-17 08:37:17 51°11.988 2°47.618 6.9 317 -0.5 100440 39
2009-12-17 08:37:22 51°11.98 2°47.594 6.9 307 -0.5 100440 39
2009-12-17 08:37:27 51°11.971 2°47.572 6.4 21 -0.5 100430 39
2009-12-17 08:37:32 51°11.963 2°47.548 6.6 308 -0.5 100430 39
2009-12-17 08:37:37 51°11.954 2°47.525 5.5 20 -0.5 100430 37
2009-12-17 08:37:42 51°11.945 2°47.502 7.7 282 -0.5 100430 37
2009-12-17 08:37:47 51°11.938 2°47.478 8.1 25 -0.5 100440 36
2009-12-17 08:37:52 51°11.928 2°47.455 7.8 305 -0.5 100440 36
2009-12-17 08:37:57 51°11.92 2°47.432 8.6 22 -0.5 100430 35
2009-12-17 08:38:02 51°11.911 2°47.409 9 310 -0.5 100430 35
2009-12-17 08:38:07 51°11.903 2°47.385 9 20 -0.4 100440 40
2009-12-17 08:38:12 51°11.894 2°47.363 9.2 303 -0.4 100440 40
2009-12-17 08:38:17 51°11.885 2°47.34 9.2 317 -0.4 100430 36
2009-12-17 08:38:22 51°11.877 2°47.316 7.9 305 -0.4 100430 36
2009-12-17 08:38:27 51°11.868 2°47.293 9.1 20 -0.4 100430 36
2009-12-17 08:38:32 51°11.859 2°47.27 8.8 311 -0.4 100430 36
2009-12-17 08:38:37 51°11.852 2°47.246 8.8 21 -0.4 100430 37
2009-12-17 08:38:42 51°11.842 2°47.225 9.1 308 -0.4 100430 37
2009-12-17 08:38:47 51°11.835 2°47.201 9.1 23 -0.4 100440 36
2009-12-17 08:38:52 51°11.826 2°47.178 8.7 305 -0.4 100440 36
2009-12-17 08:38:57 51°11.817 2°47.155 8.8 20 -0.5 100440 39
2009-12-17 08:39:02 51°11.809 2°47.132 8.8 305 -0.5 100440 39
2009-12-17 08:39:07 51°11.801 2°47.109 8.4 19 -0.5 100420 38
2009-12-17 08:39:12 51°11.792 2°47.085 9.5 311 -0.5 100420 38
2009-12-17 08:39:16 51°11.785 2°47.067 9.4 19 -0.5 100420 36
2009-12-17 08:39:22 51°11.775 2°47.038 9.5 306 -0.5 100420 36
2009-12-17 08:39:27 51°11.766 2°47.016 9.4 20 -0.5 100420 37
2009-12-17 08:39:32 51°11.759 2°46.991 9.7 310 -0.5 100420 37
2009-12-17 08:39:37 51°11.749 2°46.969 8.2 18 -0.5 100430 40
2009-12-17 08:39:42 51°11.742 2°46.945 8.7 286 -0.5 100430 40
2009-12-17 08:39:47 51°11.733 2°46.922 8.1 23 -0.5 100420 40
2009-12-17 08:39:52 51°11.728 2°46.897 7.8 311 -0.5 100420 40
2009-12-17 08:39:57 51°11.723 2°46.872 6.9 19 -0.5 100440 37
2009-12-17 08:40:02 51°11.719 2°46.847 7.1 304 -0.5 100440 37
2009-12-17 08:40:07 51°11.715 2°46.821 7.5 26 -0.5 100430 36
2009-12-17 08:40:12 51°11.712 2°46.796 7.2 311 -0.5 100430 36
2009-12-17 08:40:17 51°11.71 2°46.77 7.5 25 -0.5 100440 36
2009-12-17 08:40:22 51°11.707 2°46.744 6.6 306 -0.5 100440 36
2009-12-17 08:40:27 51°11.705 2°46.718 6.9 20 -0.5 100430 40
2009-12-17 08:40:32 51°11.703 2°46.691 5.8 310 -0.5 100430 40
2009-12-17 08:40:37 51°11.702 2°46.665 7.1 19 -0.5 100420 40
2009-12-17 08:40:42 51°11.699 2°46.639 7.3 310 -0.5 100420 40
2009-12-17 08:40:47 51°11.698 2°46.613 8 18 -0.5 100440 35
2009-12-17 08:40:52 51°11.696 2°46.587 6 309 -0.5 100440 35
2009-12-17 08:40:57 51°11.694 2°46.56 7.8 18 -0.5 100430 38
2009-12-17 08:41:02 51°11.693 2°46.534 7.2 309 -0.5 100430 38
2009-12-17 08:41:07 51°11.692 2°46.508 6.6 23 -0.5 100450 40
2009-12-17 08:41:12 51°11.69 2°46.481 6.5 307 -0.5 100450 40
2009-12-17 08:41:17 51°11.69 2°46.454 7.6 21 -0.5 100420 39
2009-12-17 08:41:22 51°11.688 2°46.427 6.7 309 -0.5 100420 39
2009-12-17 08:41:27 51°11.687 2°46.4 6.9 25 -0.5 100420 37
2009-12-17 08:41:32 51°11.685 2°46.374 7.1 304 -0.5 100420 37
2009-12-17 08:41:37 51°11.685 2°46.347 6.6 23 -0.5 100420 38
2009-12-17 08:41:42 51°11.683 2°46.32 6 284 -0.5 100420 38
2009-12-17 08:41:47 51°11.682 2°46.294 7.2 19 -0.5 100420 39
2009-12-17 08:41:52 51°11.68 2°46.267 6.5 309 -0.5 100420 39
2009-12-17 08:41:57 51°11.679 2°46.24 6.4 23 -0.5 100430 35
2009-12-17 08:42:02 51°11.678 2°46.213 6.2 306 -0.5 100430 35
2009-12-17 08:42:07 51°11.678 2°46.187 6.4 24 -0.5 100430 35
2009-12-17 08:42:12 51°11.676 2°46.16 6.6 306 -0.5 100430 35
2009-12-17 08:42:16 51°11.675 2°46.139 6.2 18 -0.5 100430 37
2009-12-17 08:42:22 51°11.674 2°46.107 6.3 306 -0.5 100430 37
2009-12-17 08:42:27 51°11.673 2°46.08 6.4 24 -0.5 100430 36
2009-12-17 08:42:32 51°11.673 2°46.054 6.6 311 -0.5 100430 36
2009-12-17 08:42:37 51°11.671 2°46.027 6.4 25 -0.5 100430 40
2009-12-17 08:42:42 51°11.671 2°46 7 307 -0.5 100430 40
2009-12-17 08:42:47 51°11.67 2°45.974 7.4 18 -0.5 100440 39
2009-12-17 08:42:52 51°11.67 2°45.947 7 310 -0.5 100440 39
2009-12-17 08:42:57 51°11.669 2°45.92 6.3 24 -0.5 100430 37
2009-12-17 08:43:02 51°11.669 2°45.893 5.4 306 -0.5 100430 37
2009-12-17 08:43:07 51°11.668 2°45.866 6.4 19 -0.4 100430 36
2009-12-17 08:43:12 51°11.668 2°45.839 6.4 309 -0.4 100430 36
2009-12-17 08:43:17 51°11.668 2°45.812 6.5 24 -0.4 100420 35
2009-12-17 08:43:22 51°11.666 2°45.785 6 306 -0.4 100420 35
2009-12-17 08:43:27 51°11.667 2°45.758 6.6 25 -0.4 100420 39
2009-12-17 08:43:32 51°11.665 2°45.731 5.7 307 -0.4 100420 39
2009-12-17 08:43:36 51°11.665 2°45.709 6.3 24 -0.4 100440 39
2009-12-17 08:43:42 51°11.664 2°45.677 7.1 287 -0.4 100440 39
2009-12-17 08:43:47 51°11.663 2°45.65 5.5 26 -0.4 100400 36
2009-12-17 08:43:52 51°11.663 2°45.623 6.6 307 -0.4 100400 36
2009-12-17 08:43:57 51°11.662 2°45.596 6.3 21 -0.4 100430 40
2009-12-17 08:44:02 51°11.661 2°45.569 5.4 304 -0.4 100430 40
2009-12-17 08:44:07 51°11.661 2°45.542 6.7 19 -0.5 100430 34
2009-12-17 08:44:12 51°11.66 2°45.515 7.7 309 -0.5 100430 34
2009-12-17 08:44:17 51°11.66 2°45.488 6.3 25 -0.5 100430 40
2009-12-17 08:44:22 51°11.659 2°45.461 6.2 304 -0.5 100430 40
2009-12-17 08:44:27 51°11.659 2°45.434 5.9 23 -0.4 100430 39
2009-12-17 08:44:32 51°11.658 2°45.407 6 308 -0.4 100430 39
2009-12-17 08:44:37 51°11.658 2°45.38 5.2 18 -0.5 100440 38
2009-12-17 08:44:42 51°11.657 2°45.353 6 310 -0.5 100440 38
2009-12-17 08:44:47 51°11.657 2°45.326 6.9 25 -0.5 100430 38
2009-12-17 08:44:52 51°11.656 2°45.299 6.5 311 -0.5 100430 38
2009-12-17 08:44:57 51°11.656 2°45.272 6.8 23 -0.5 100430 39
2009-12-17 08:45:02 51°11.655 2°45.245 6 307 -0.5 100430 39
2009-12-17 08:45:07 51°11.655 2°45.218 5.8 24 -0.5 100430 35
2009-12-17 08:45:12 51°11.653 2°45.191 5.3 308 -0.5 100430 35
2009-12-17 08:45:17 51°11.652 2°45.164 5.6 21 -0.4 100430 35
2009-12-17 08:45:22 51°11.652 2°45.137 5.9 311 -0.4 100430 35
2009-12-17 08:45:27 51°11.65 2°45.11 5.8 23 -0.4 100420 35
2009-12-17 08:45:32 51°11.65 2°45.084 5.9 308 -0.4 100420 35
2009-12-17 08:45:37 51°11.649 2°45.057 4.9 21 -0.4 100440 36
2009-12-17 08:45:42 51°11.648 2°45.03 7.8 285 -0.4 100440 36
2009-12-17 08:45:47 51°11.647 2°45.004 8.1 23 -0.4 100430 41
2009-12-17 08:45:52 51°11.646 2°44.978 6.2 308 -0.4 100430 41
2009-12-17 08:45:57 51°11.646 2°44.952 7.5 23 -0.4 100430 36
2009-12-17 08:46:02 51°11.644 2°44.925 6.7 306 -0.4 100430 36
2009-12-17 08:46:07 51°11.644 2°44.899 6.9 20 -0.4 100440 39
2009-12-17 08:46:12 51°11.642 2°44.872 7.4 309 -0.4 100440 39
2009-12-17 08:46:16 51°11.641 2°44.851 5.5 18 -0.4 100430 39
2009-12-17 08:46:22 51°11.64 2°44.819 5.9 310 -0.4 100430 39
2009-12-17 08:46:27 51°11.639 2°44.793 6.2 23 -0.4 100420 36
2009-12-17 08:46:32 51°11.639 2°44.766 5.5 308 -0.4 100420 36
2009-12-17 08:46:37 51°11.637 2°44.74 5.9 25 -0.4 100420 36
2009-12-17 08:46:42 51°11.637 2°44.713 7.8 308 -0.4 100420 36
2009-12-17 08:46:47 51°11.636 2°44.687 4.8 24 -0.4 100420 35
2009-12-17 08:46:52 51°11.635 2°44.661 6.7 305 -0.4 100420 35
2009-12-17 08:46:57 51°11.635 2°44.634 6.8 21 -0.4 100440 39
2009-12-17 08:47:02 51°11.634 2°44.608 7.2 310 -0.4 100440 39
2009-12-17 08:47:07 51°11.633 2°44.582 5.2 22 -0.4 100430 39
2009-12-17 08:47:12 51°11.632 2°44.556 7 309 -0.4 100430 39
2009-12-17 08:47:17 51°11.631 2°44.529 6.3 25 -0.4 100430 36
2009-12-17 08:47:22 51°11.631 2°44.503 6.9 310 -0.4 100430 36
2009-12-17 08:47:27 51°11.63 2°44.477 6.6 19 -0.4 100430 35
2009-12-17 08:47:32 51°11.629 2°44.451 5.7 303 -0.4 100430 35
2009-12-17 08:47:37 51°11.629 2°44.425 6.1 23 -0.4 100430 35
2009-12-17 08:47:42 51°11.628 2°44.399 6 286 -0.4 100430 35
2009-12-17 08:47:47 51°11.628 2°44.373 7.8 22 -0.4 100430 37
2009-12-17 08:47:52 51°11.627 2°44.347 6.2 309 -0.4 100430 37
2009-12-17 08:47:57 51°11.627 2°44.321 6.3 20 -0.4 100430 40
2009-12-17 08:48:02 51°11.626 2°44.295 5.1 309 -0.4 100430 40
2009-12-17 08:48:07 51°11.626 2°44.269 5.8 25 -0.4 100430 38
2009-12-17 08:48:12 51°11.626 2°44.243 5 307 -0.4 100430 38
2009-12-17 08:48:16 51°11.625 2°44.222 6.4 22 -0.4 100440 37
2009-12-17 08:48:22 51°11.625 2°44.192 5.9 306 -0.4 100440 37
2009-12-17 08:48:27 51°11.624 2°44.166 5.8 26 -0.3 100420 35
2009-12-17 08:48:32 51°11.623 2°44.14 5.2 311 -0.3 100420 35
2009-12-17 08:48:37 51°11.622 2°44.114 5.4 17 -0.3 100430 40
2009-12-17 08:48:42 51°11.622 2°44.088 6.2 303 -0.3 100430 40
2009-12-17 08:48:47 51°11.621 2°44.063 5.4 19 -0.3 100460 37
2009-12-17 08:48:52 51°11.62 2°44.037 7.2 309 -0.3 100460 37
2009-12-17 08:48:57 51°11.62 2°44.012 6.9 20 -0.3 100440 36
2009-12-17 08:49:02 51°11.62 2°43.987 6.5 305 -0.3 100440 36
2009-12-17 08:49:07 51°11.619 2°43.961 7.2 21 -0.3 100430 37
2009-12-17 08:49:12 51°11.618 2°43.936 6.5 304 -0.3 100430 37
2009-12-17 08:49:17 51°11.617 2°43.911 6.2 22 -0.3 100420 40
2009-12-17 08:49:22 51°11.617 2°43.886 5.3 303 -0.3 100420 40
2009-12-17 08:49:27 51°11.617 2°43.86 6.1 25 -0.3 100440 36
2009-12-17 08:49:32 51°11.615 2°43.834 5.2 306 -0.3 100440 36
2009-12-17 08:49:37 51°11.616 2°43.809 7.3 24 -0.3 100430 37
2009-12-17 08:49:42 51°11.615 2°43.785 6.3 283 -0.3 100430 37
2009-12-17 08:49:47 51°11.613 2°43.759 4.4 23 -0.3 100430 38
2009-12-17 08:49:52 51°11.614 2°43.733 5.3 306 -0.3 100430 38
2009-12-17 08:49:57 51°11.612 2°43.708 5.1 19 -0.3 100420 39
2009-12-17 08:50:02 51°11.612 2°43.683 5.6 309 -0.3 100420 39
2009-12-17 08:50:07 51°11.612 2°43.658 7.5 20 -0.3 100440 35
2009-12-17 08:50:12 51°11.61 2°43.633 5 309 -0.3 100440 35
2009-12-17 08:50:17 51°11.61 2°43.608 7.9 22 -0.2 100420 40
2009-12-17 08:50:22 51°11.61 2°43.582 6.2 308 -0.2 100420 40
2009-12-17 08:50:27 51°11.609 2°43.557 6.8 20 -0.2 100440 38
2009-12-17 08:50:32 51°11.608 2°43.531 7.7 303 -0.2 100440 38
2009-12-17 08:50:37 51°11.608 2°43.506 7 20 -0.2 100430 37
2009-12-17 08:50:42 51°11.607 2°43.48 6.4 308 -0.2 100430 37
2009-12-17 08:50:47 51°11.606 2°43.455 6.4 26 -0.2 100430 37
2009-12-17 08:50:52 51°11.605 2°43.43 8.4 308 -0.2 100430 37
2009-12-17 08:50:57 51°11.604 2°43.405 8.9 19 -0.2 100430 40
2009-12-17 08:51:02 51°11.604 2°43.38 6.7 306 -0.2 100430 40
2009-12-17 08:51:07 51°11.603 2°43.354 4.9 20 -0.2 100430 36
2009-12-17 08:51:12 51°11.602 2°43.329 5.2 303 -0.2 100430 36
2009-12-17 08:51:17 51°11.602 2°43.304 6.3 20 -0.2 100440 36
2009-12-17 08:51:22 51°11.601 2°43.278 3.3 311 -0.2 100440 36
2009-12-17 08:51:27 51°11.6 2°43.253 6.1 20 -0.2 100440 36
2009-12-17 08:51:32 51°11.599 2°43.227 6.3 308 -0.2 100440 36
2009-12-17 08:51:37 51°11.598 2°43.202 6.5 24 -0.2 100420 34
2009-12-17 08:51:42 51°11.598 2°43.176 5.9 282 -0.2 100420 34
2009-12-17 08:51:47 51°11.597 2°43.151 6.2 20 -0.2 100430 35
2009-12-17 08:51:52 51°11.597 2°43.125 6.5 308 -0.2 100430 35
2009-12-17 08:51:57 51°11.596 2°43.1 6 25 -0.2 100440 39
2009-12-17 08:52:02 51°11.596 2°43.075 5.6 305 -0.2 100440 39
2009-12-17 08:52:07 51°11.595 2°43.049 6.6 26 -0.2 100430 36
2009-12-17 08:52:12 51°11.594 2°43.023 6.1 309 -0.2 100430 36
2009-12-17 08:52:17 51°11.594 2°42.998 6.4 18 -0.2 100430 37
2009-12-17 08:52:22 51°11.593 2°42.972 6.2 309 -0.2 100430 37
2009-12-17 08:52:27 51°11.592 2°42.947 5.5 18 -0.2 100430 39
2009-12-17 08:52:32 51°11.591 2°42.921 5.8 311 -0.2 100430 39
2009-12-17 08:52:36 51°11.591 2°42.901 7 20 -0.2 100430 37
2009-12-17 08:52:42 51°11.59 2°42.87 5.8 308 -0.2 100430 37
2009-12-17 08:52:47 51°11.589 2°42.845 6.4 23 -0.2 100440 35
2009-12-17 08:52:52 51°11.589 2°42.82 7.3 307 -0.2 100440 35
2009-12-17 08:52:57 51°11.588 2°42.794 5.8 20 -0.2 100440 39
2009-12-17 08:53:02 51°11.587 2°42.769 6.6 304 -0.2 100440 39
2009-12-17 08:53:07 51°11.586 2°42.744 6.5 18 -0.2 100440 37
2009-12-17 08:53:12 51°11.585 2°42.718 7.1 310 -0.2 100440 37
2009-12-17 08:53:17 51°11.585 2°42.693 6.3 25 -0.2 100440 40
2009-12-17 08:53:22 51°11.583 2°42.668 5.7 309 -0.2 100440 40
2009-12-17 08:53:27 51°11.583 2°42.643 6.9 27 -0.2 100440 40
2009-12-17 08:53:32 51°11.582 2°42.617 6.2 308 -0.2 100440 40
2009-12-17 08:53:37 51°11.581 2°42.592 6 26 -0.2 100440 37
2009-12-17 08:53:42 51°11.58 2°42.566 6.5 280 -0.2 100440 37
2009-12-17 08:53:47 51°11.58 2°42.541 5.7 25 -0.2 100420 35
2009-12-17 08:53:52 51°11.58 2°42.516 5.4 309 -0.2 100420 35
2009-12-17 08:53:57 51°11.579 2°42.49 5.5 23 -0.2 100440 40
2009-12-17 08:54:02 51°11.578 2°42.465 5.9 305 -0.2 100440 40
2009-12-17 08:54:07 51°11.578 2°42.439 6.5 19 -0.2 100440 39
2009-12-17 08:54:12 51°11.577 2°42.414 6.7 305 -0.2 100440 39
2009-12-17 08:54:17 51°11.577 2°42.389 7.7 19 -0.2 100440 35
2009-12-17 08:54:22 51°11.576 2°42.363 6.5 307 -0.2 100440 35
2009-12-17 08:54:27 51°11.574 2°42.338 5.7 20 -0.2 100440 40
2009-12-17 08:54:32 51°11.574 2°42.312 7 306 -0.2 100440 40
2009-12-17 08:54:37 51°11.572 2°42.287 5 18 -0.2 100450 40
2009-12-17 08:54:42 51°11.571 2°42.262 6.4 305 -0.2 100450 40
2009-12-17 08:54:47 51°11.57 2°42.237 6.5 26 -0.2 100440 41
2009-12-17 08:54:52 51°11.569 2°42.211 6.7 309 -0.2 100440 41
2009-12-17 08:54:56 51°11.568 2°42.191 6.6 23 -0.2 100430 40
2009-12-17 08:55:02 51°11.567 2°42.161 6.5 305 -0.2 100430 40
2009-12-17 08:55:07 51°11.565 2°42.135 6.1 20 -0.2 100440 40
2009-12-17 08:55:12 51°11.564 2°42.11 5.3 309 -0.2 100440 40
2009-12-17 08:55:17 51°11.563 2°42.085 5 19 -0.2 100440 36
2009-12-17 08:55:22 51°11.561 2°42.059 6.4 305 -0.2 100440 36
2009-12-17 08:55:27 51°11.559 2°42.034 6.6 19 -0.2 100450 40
2009-12-17 08:55:32 51°11.558 2°42.009 6.3 306 -0.2 100450 40
2009-12-17 08:55:37 51°11.556 2°41.984 6.8 19 -0.2 100440 40
2009-12-17 08:55:42 51°11.554 2°41.959 6.5 282 -0.2 100440 40
2009-12-17 08:55:47 51°11.553 2°41.933 6.5 23 -0.2 100440 36
2009-12-17 08:55:52 51°11.551 2°41.908 5.8 305 -0.2 100440 36
2009-12-17 08:55:57 51°11.549 2°41.883 8.3 21 -0.1 100440 39
2009-12-17 08:56:02 51°11.547 2°41.858 6.7 308 -0.1 100440 39
2009-12-17 08:56:07 51°11.545 2°41.832 6.7 23 -0.1 100440 36
2009-12-17 08:56:12 51°11.543 2°41.807 5.5 308 -0.1 100440 36
2009-12-17 08:56:17 51°11.541 2°41.781 5.3 20 -0.2 100440 36
2009-12-17 08:56:22 51°11.54 2°41.755 5 304 -0.2 100440 36
2009-12-17 08:56:27 51°11.539 2°41.73 6.7 25 -0.2 100440 40
2009-12-17 08:56:32 51°11.537 2°41.704 7.9 304 -0.2 100440 40
2009-12-17 08:56:37 51°11.536 2°41.679 7.5 19 -0.2 100440 40
2009-12-17 08:56:42 51°11.534 2°41.655 6.9 304 -0.2 100440 40
2009-12-17 08:56:47 51°11.533 2°41.634 6.5 20 -0.1 100440 36
2009-12-17 08:56:52 51°11.532 2°41.614 5.2 310 -0.1 100440 36
2009-12-17 08:56:57 51°11.532 2°41.596 4.8 249 -0.1 100450 35
2009-12-17 08:57:02 51°11.532 2°41.579 4.9 309 -0.1 100450 35
2009-12-17 08:57:07 51°11.534 2°41.565 4.5 257 -0.1 100450 36
2009-12-17 08:57:12 51°11.536 2°41.551 3.1 306 -0.1 100450 36
2009-12-17 08:57:17 51°11.538 2°41.539 2.3 267 -0.1 100440 35
2009-12-17 08:57:22 51°11.541 2°41.527 2.4 55 -0.1 100440 35
2009-12-17 08:57:27 51°11.544 2°41.516 3.2 23 -0.1 100440 38
2009-12-17 08:57:32 51°11.548 2°41.508 3 56 -0.1 100440 38
2009-12-17 08:57:37 51°11.553 2°41.5 2.1 20 -0.1 100450 35
2009-12-17 08:57:42 51°11.557 2°41.493 1.9 72 -0.1 100450 35
2009-12-17 08:57:47 51°11.562 2°41.488 0.4 23 -0.1 100460 40
2009-12-17 08:57:52 51°11.567 2°41.484 0.1 53 -0.1 100460 40
2009-12-17 08:57:57 51°11.571 2°41.48 1.4 22 -0.1 100450 42
2009-12-17 08:58:02 51°11.577 2°41.478 2 43 -0.1 100450 42
2009-12-17 08:58:07 51°11.581 2°41.477 2 24 -0.1 100460 38
2009-12-17 08:58:12 51°11.586 2°41.475 1.3 50 -0.1 100460 38
2009-12-17 08:58:17 51°11.591 2°41.472 1.7 19 -0.1 100460 37
2009-12-17 08:58:22 51°11.596 2°41.469 1.4 51 -0.1 100460 37
2009-12-17 08:58:27 51°11.601 2°41.464 0.5 22 -0.1 100470 35
2009-12-17 08:58:32 51°11.605 2°41.459 0.3 55 -0.1 100470 35
2009-12-17 08:58:37 51°11.609 2°41.453 2.7 20 -0.1 100450 40
2009-12-17 08:58:42 51°11.612 2°41.446 3.3 50 -0.1 100450 40
2009-12-17 08:58:47 51°11.615 2°41.438 2.7 266 -0.1 100450 39
2009-12-17 08:58:52 51°11.617 2°41.429 3.6 308 -0.1 100450 39
2009-12-17 08:58:57 51°11.618 2°41.418 5.6 256 -0.1 100450 36
2009-12-17 08:59:02 51°11.619 2°41.409 5.1 304 -0.1 100450 36
2009-12-17 08:59:07 51°11.619 2°41.399 4.6 21 -0.1 100450 34
2009-12-17 08:59:12 51°11.618 2°41.39 4.8 304 -0.1 100450 34
2009-12-17 08:59:17 51°11.617 2°41.381 5 24 -0.1 100460 38
2009-12-17 08:59:22 51°11.616 2°41.373 5.4 311 -0.1 100460 38
2009-12-17 08:59:27 51°11.614 2°41.364 5.4 247 -0.1 100450 35
2009-12-17 08:59:32 51°11.612 2°41.356 5.4 309 -0.1 100450 35
2009-12-17 08:59:37 51°11.609 2°41.348 5.4 24 -0.1 100450 36
2009-12-17 08:59:42 51°11.607 2°41.341 4.8 286 -0.1 100450 36
2009-12-17 08:59:47 51°11.604 2°41.334 5.3 18 -0.1 100450 36
2009-12-17 08:59:52 51°11.601 2°41.327 4.8 309 -0.1 100450 36
2009-12-17 08:59:57 51°11.597 2°41.321 5.2 27 -0.1 100440 36
2009-12-17 09:00:02 51°11.593 2°41.315 6.3 309 -0.1 100440 36
2009-12-17 09:00:07 51°11.589 2°41.31 6.8 22 -999 100450 35
2009-12-17 09:00:12 51°11.585 2°41.305 6.9 311 -999 100450 35
2009-12-17 09:00:17 51°11.58 2°41.301 6.9 318 -0.1 100460 36
2009-12-17 09:00:22 51°11.575 2°41.297 6.7 304 -0.1 100460 36
2009-12-17 09:00:27 51°11.57 2°41.294 7 323 -999 100440 36
2009-12-17 09:00:32 51°11.565 2°41.292 7.5 324 -999 100440 36
2009-12-17 09:00:37 51°11.56 2°41.291 7.2 328 -999 100450 40
2009-12-17 09:00:42 51°11.555 2°41.29 7.3 332 -999 100450 40
2009-12-17 09:00:47 51°11.549 2°41.29 6.5 331 -999 100450 36
2009-12-17 09:00:52 51°11.543 2°41.291 7.8 332 -999 100450 36
2009-12-17 09:00:57 51°11.538 2°41.292 7.7 332 -999 100460 40
2009-12-17 09:01:02 51°11.531 2°41.294 7.4 333 -999 100460 40
2009-12-17 09:01:07 51°11.525 2°41.296 7.8 332 -999 100450 36
2009-12-17 09:01:12 51°11.517 2°41.299 8.1 332 -999 100450 36
2009-12-17 09:01:17 51°11.51 2°41.301 7.1 331 -999 100450 40
2009-12-17 09:01:22 51°11.502 2°41.304 7.7 333 -999 100450 40
2009-12-17 09:01:27 51°11.494 2°41.307 8 330 -0.1 100450 40
2009-12-17 09:01:32 51°11.486 2°41.309 8.7 334 -0.1 100450 40
2009-12-17 09:01:36 51°11.479 2°41.311 8 333 -0.1 100450 40
2009-12-17 09:01:42 51°11.47 2°41.314 7.6 287 -0.1 100450 40
2009-12-17 09:01:47 51°11.461 2°41.316 7.1 330 -0.1 100450 40
2009-12-17 09:01:52 51°11.453 2°41.318 7.9 331 -0.1 100450 40
2009-12-17 09:01:57 51°11.445 2°41.319 7.3 331 -0.1 100450 37
2009-12-17 09:02:02 51°11.438 2°41.32 7.6 330 -0.1 100450 37
2009-12-17 09:02:07 51°11.43 2°41.32 7.2 330 -0.1 100450 36
2009-12-17 09:02:12 51°11.423 2°41.321 8.2 331 -0.1 100450 36
2009-12-17 09:02:17 51°11.416 2°41.32 7.5 329 -0.1 100450 39
2009-12-17 09:02:22 51°11.409 2°41.321 7.5 330 -0.1 100450 39
2009-12-17 09:02:27 51°11.402 2°41.32 6.8 329 -0.1 100440 39
2009-12-17 09:02:32 51°11.396 2°41.32 7.2 329 -0.1 100440 39
2009-12-17 09:02:37 51°11.389 2°41.319 8 326 -0.1 100440 40
2009-12-17 09:02:42 51°11.382 2°41.318 7.1 327 -0.1 100440 40
2009-12-17 09:02:47 51°11.376 2°41.316 7.9 326 -0.1 100450 39
2009-12-17 09:02:52 51°11.369 2°41.314 6.8 303 -0.1 100450 39
2009-12-17 09:02:57 51°11.363 2°41.313 7.3 327 -0.1 100440 39
2009-12-17 09:03:02 51°11.357 2°41.31 6.9 324 -0.1 100440 39
2009-12-17 09:03:07 51°11.35 2°41.308 7.3 324 -0.1 100440 38
2009-12-17 09:03:12 51°11.344 2°41.305 7.3 305 -0.1 100440 38
2009-12-17 09:03:17 51°11.338 2°41.302 6.3 323 -0.1 100450 40
2009-12-17 09:03:22 51°11.332 2°41.298 6.3 306 -0.1 100450 40
2009-12-17 09:03:27 51°11.327 2°41.295 6.7 320 -0.1 100450 36
2009-12-17 09:03:32 51°11.321 2°41.291 7.6 306 -0.1 100450 36
2009-12-17 09:03:37 51°11.315 2°41.287 6.1 318 -0.1 100450 39
2009-12-17 09:03:42 51°11.309 2°41.283 6.8 283 -0.1 100450 39
2009-12-17 09:03:47 51°11.304 2°41.278 6.1 317 -0.1 100450 38
2009-12-17 09:03:52 51°11.298 2°41.274 6.7 307 -0.1 100450 38
2009-12-17 09:03:57 51°11.293 2°41.269 7.1 22 -999 100450 36
2009-12-17 09:04:02 51°11.288 2°41.263 6.6 305 -999 100450 36
2009-12-17 09:04:07 51°11.283 2°41.258 7.1 19 -0.1 100450 35
2009-12-17 09:04:12 51°11.278 2°41.252 7.5 306 -0.1 100450 35
2009-12-17 09:04:17 51°11.273 2°41.246 6.2 19 -0.1 100450 40
2009-12-17 09:04:22 51°11.269 2°41.24 5.8 304 -0.1 100450 40
2009-12-17 09:04:27 51°11.264 2°41.234 7.2 26 -0.1 100460 38
2009-12-17 09:04:32 51°11.26 2°41.227 6.6 306 -0.1 100460 38
2009-12-17 09:04:37 51°11.255 2°41.221 6.8 20 -999 100450 37
2009-12-17 09:04:42 51°11.251 2°41.213 6.5 303 -999 100450 37
2009-12-17 09:04:47 51°11.247 2°41.207 5.9 27 -0.1 100430 36
2009-12-17 09:04:52 51°11.243 2°41.2 4.9 309 -0.1 100430 36
2009-12-17 09:04:57 51°11.239 2°41.192 6.3 23 -0.1 100450 39
2009-12-17 09:05:02 51°11.235 2°41.185 6.4 307 -0.1 100450 39
2009-12-17 09:05:07 51°11.231 2°41.179 5.8 24 -0.1 100450 40
2009-12-17 09:05:12 51°11.227 2°41.172 6.3 309 -0.1 100450 40
2009-12-17 09:05:17 51°11.222 2°41.166 6.5 22 -0.1 100440 35
2009-12-17 09:05:22 51°11.218 2°41.159 6 307 -0.1 100440 35
2009-12-17 09:05:27 51°11.214 2°41.152 6.7 19 -0.1 100460 36
2009-12-17 09:05:32 51°11.21 2°41.146 6.1 310 -0.1 100460 36
2009-12-17 09:05:37 51°11.205 2°41.14 6 26 -0.1 100430 40
2009-12-17 09:05:42 51°11.201 2°41.133 5.9 285 -0.1 100430 40
2009-12-17 09:05:47 51°11.197 2°41.126 5.7 24 -0.1 100440 35
2009-12-17 09:05:52 51°11.193 2°41.12 6.5 305 -0.1 100440 35
2009-12-17 09:05:57 51°11.189 2°41.113 6.1 21 -0.1 100450 35
2009-12-17 09:06:02 51°11.185 2°41.106 5.8 308 -0.1 100450 35
2009-12-17 09:06:07 51°11.181 2°41.1 5.9 19 -0.1 100450 40
2009-12-17 09:06:12 51°11.176 2°41.094 5.5 307 -0.1 100450 40
2009-12-17 09:06:16 51°11.173 2°41.088 6.3 24 -999 100440 35
2009-12-17 09:06:22 51°11.168 2°41.081 5.9 304 -999 100440 35
2009-12-17 09:06:27 51°11.163 2°41.075 5.5 20 -999 100460 40
2009-12-17 09:06:32 51°11.159 2°41.068 6.5 310 -999 100460 40
2009-12-17 09:06:37 51°11.155 2°41.062 5.2 19 -999 100440 39
2009-12-17 09:06:42 51°11.151 2°41.056 5.6 310 -999 100440 39
2009-12-17 09:06:47 51°11.148 2°41.05 6 20 -999 100460 35
2009-12-17 09:06:52 51°11.143 2°41.044 5.7 305 -999 100460 35
2009-12-17 09:06:57 51°11.139 2°41.038 5.1 21 -999 100450 36
2009-12-17 09:07:02 51°11.136 2°41.031 6.4 304 -999 100450 36
2009-12-17 09:07:07 51°11.132 2°41.025 5.6 25 -0.1 100450 40
2009-12-17 09:07:12 51°11.128 2°41.019 6.1 305 -0.1 100450 40
2009-12-17 09:07:17 51°11.124 2°41.013 5.1 19 -999 100450 40
2009-12-17 09:07:22 51°11.121 2°41.007 5.4 311 -999 100450 40
2009-12-17 09:07:27 51°11.117 2°41.001 6.4 21 -0.1 100450 38
2009-12-17 09:07:32 51°11.113 2°40.995 6.4 303 -0.1 100450 38
2009-12-17 09:07:37 51°11.109 2°40.989 6.4 20 -999 100450 38
2009-12-17 09:07:42 51°11.106 2°40.983 6.6 286 -999 100450 38
2009-12-17 09:07:47 51°11.102 2°40.977 6.6 26 -999 100450 40
2009-12-17 09:07:52 51°11.098 2°40.971 5.5 304 -999 100450 40
2009-12-17 09:07:57 51°11.095 2°40.965 6.4 25 -999 100450 36
2009-12-17 09:08:02 51°11.091 2°40.958 5.5 311 -999 100450 36
2009-12-17 09:08:07 51°11.088 2°40.953 5.6 26 -999 100450 40
2009-12-17 09:08:12 51°11.084 2°40.947 5.6 307 -999 100450 40
2009-12-17 09:08:17 51°11.08 2°40.941 6.3 25 -999 100440 40
2009-12-17 09:08:22 51°11.077 2°40.935 6.1 308 -999 100440 40
2009-12-17 09:08:27 51°11.073 2°40.929 5 21 -999 100450 37
2009-12-17 09:08:32 51°11.069 2°40.924 5.2 306 -999 100450 37
2009-12-17 09:08:37 51°11.066 2°40.918 5.7 26 -999 100430 36
2009-12-17 09:08:42 51°11.062 2°40.912 5.6 308 -999 100430 36
2009-12-17 09:08:47 51°11.059 2°40.906 5.3 23 -0.1 100450 39
2009-12-17 09:08:52 51°11.055 2°40.9 5.4 309 -0.1 100450 39
2009-12-17 09:08:57 51°11.051 2°40.895 5.9 20 -0.1 100440 37
2009-12-17 09:09:02 51°11.048 2°40.889 5.1 304 -0.1 100440 37
2009-12-17 09:09:07 51°11.044 2°40.883 7.4 24 -0.1 100450 40
2009-12-17 09:09:12 51°11.041 2°40.877 5.7 311 -0.1 100450 40
2009-12-17 09:09:17 51°11.037 2°40.871 6.7 26 -0.1 100440 36
2009-12-17 09:09:22 51°11.034 2°40.865 6.3 304 -0.1 100440 36
2009-12-17 09:09:27 51°11.03 2°40.859 6.2 20 -999 100450 35
2009-12-17 09:09:32 51°11.027 2°40.852 6.3 303 -999 100450 35
2009-12-17 09:09:37 51°11.024 2°40.846 7 22 -0.1 100460 36
2009-12-17 09:09:42 51°11.02 2°40.84 6.5 281 -0.1 100460 36
2009-12-17 09:09:47 51°11.017 2°40.834 5.9 22 -0.1 100450 36
2009-12-17 09:09:52 51°11.014 2°40.827 6.2 307 -0.1 100450 36
2009-12-17 09:09:57 51°11.01 2°40.821 6.3 19 -0.1 100450 37
2009-12-17 09:10:02 51°11.007 2°40.814 6.3 308 -0.1 100450 37
2009-12-17 09:10:07 51°11.004 2°40.808 6.2 18 -0.1 100450 35
2009-12-17 09:10:12 51°11 2°40.801 5.7 309 -0.1 100450 35
2009-12-17 09:10:17 51°10.997 2°40.795 6.3 18 -0.1 100450 35
2009-12-17 09:10:22 51°10.994 2°40.788 6.2 310 -0.1 100450 35
2009-12-17 09:10:27 51°10.99 2°40.782 5.6 19 -0.1 100450 38
2009-12-17 09:10:32 51°10.987 2°40.776 5.1 306 -0.1 100450 38
2009-12-17 09:10:37 51°10.984 2°40.77 5.4 23 -0.1 100440 35
2009-12-17 09:10:42 51°10.981 2°40.763 6.2 308 -0.1 100440 35
2009-12-17 09:10:47 51°10.977 2°40.757 5.4 21 -0.1 100460 35
2009-12-17 09:10:52 51°10.974 2°40.75 6.4 303 -0.1 100460 35
2009-12-17 09:10:57 51°10.971 2°40.744 5.5 27 -0.1 100460 41
2009-12-17 09:11:02 51°10.968 2°40.737 6.1 311 -0.1 100460 41
2009-12-17 09:11:07 51°10.964 2°40.731 5.7 21 -0.1 100460 35
2009-12-17 09:11:12 51°10.961 2°40.725 5.4 310 -0.1 100460 35
2009-12-17 09:11:17 51°10.957 2°40.719 5.2 21 -0.1 100450 39
2009-12-17 09:11:22 51°10.954 2°40.712 5.5 310 -0.1 100450 39
2009-12-17 09:11:27 51°10.951 2°40.706 6.1 21 -0.1 100460 40
2009-12-17 09:11:32 51°10.948 2°40.699 5.3 304 -0.1 100460 40
2009-12-17 09:11:37 51°10.944 2°40.693 6 23 -0.1 100440 35
2009-12-17 09:11:42 51°10.941 2°40.687 5 281 -0.1 100440 35
2009-12-17 09:11:47 51°10.938 2°40.68 5.8 27 -0.1 100450 40
2009-12-17 09:11:52 51°10.935 2°40.674 5.9 304 -0.1 100450 40
2009-12-17 09:11:57 51°10.931 2°40.668 4.6 21 -0.1 100460 39
2009-12-17 09:12:02 51°10.928 2°40.662 4.7 303 -0.1 100460 39
2009-12-17 09:12:07 51°10.925 2°40.656 5.6 21 -0.1 100430 36
2009-12-17 09:12:12 51°10.922 2°40.649 6.8 311 -0.1 100430 36
2009-12-17 09:12:17 51°10.918 2°40.643 6.3 24 -0.1 100460 39
2009-12-17 09:12:22 51°10.915 2°40.637 5.9 305 -0.1 100460 39
2009-12-17 09:12:27 51°10.912 2°40.631 6.5 24 -0.1 100440 39
2009-12-17 09:12:32 51°10.908 2°40.625 6.6 308 -0.1 100440 39
2009-12-17 09:12:37 51°10.905 2°40.619 6.4 18 -0.1 100460 40
2009-12-17 09:12:42 51°10.902 2°40.612 6.7 307 -0.1 100460 40
2009-12-17 09:12:47 51°10.899 2°40.606 5.9 26 -0.1 100440 38
2009-12-17 09:12:52 51°10.895 2°40.6 6.3 309 -0.1 100440 38
2009-12-17 09:12:57 51°10.892 2°40.594 6.8 23 -0.1 100460 34
2009-12-17 09:13:02 51°10.889 2°40.588 6.2 303 -0.1 100460 34
2009-12-17 09:13:07 51°10.886 2°40.581 6.5 25 -0.1 100450 40
2009-12-17 09:13:12 51°10.882 2°40.575 6.2 308 -0.1 100450 40
2009-12-17 09:13:17 51°10.879 2°40.569 6.4 21 -0.1 100450 36
2009-12-17 09:13:22 51°10.876 2°40.563 6.3 308 -0.1 100450 36
2009-12-17 09:13:27 51°10.872 2°40.556 6.4 25 -0.1 100440 38
2009-12-17 09:13:32 51°10.869 2°40.55 6.9 305 -0.1 100440 38
2009-12-17 09:13:37 51°10.866 2°40.543 7.3 24 -0.1 100460 35
2009-12-17 09:13:42 51°10.863 2°40.537 7.3 280 -0.1 100460 35
2009-12-17 09:13:47 51°10.86 2°40.53 5.9 19 -0.1 100440 36
2009-12-17 09:13:52 51°10.856 2°40.524 6.9 311 -0.1 100440 36
2009-12-17 09:13:57 51°10.853 2°40.518 6.2 20 -0.1 100440 40
2009-12-17 09:14:02 51°10.85 2°40.512 5.1 308 -0.1 100440 40
2009-12-17 09:14:07 51°10.847 2°40.505 5.4 26 -0.1 100460 40
2009-12-17 09:14:12 51°10.844 2°40.499 5.2 304 -0.1 100460 40
2009-12-17 09:14:17 51°10.841 2°40.493 5.7 25 -0.1 100440 40
2009-12-17 09:14:22 51°10.837 2°40.486 7.2 311 -0.1 100440 40
2009-12-17 09:14:27 51°10.834 2°40.48 6.3 17 -0.1 100440 40
2009-12-17 09:14:32 51°10.83 2°40.474 6.3 309 -0.1 100440 40
2009-12-17 09:14:37 51°10.827 2°40.468 6.6 25 -0.1 100440 38
2009-12-17 09:14:42 51°10.824 2°40.461 6 309 -0.1 100440 38
2009-12-17 09:14:47 51°10.821 2°40.454 5.4 19 -0.1 100450 37
2009-12-17 09:14:52 51°10.817 2°40.448 6.2 309 -0.1 100450 37
2009-12-17 09:14:57 51°10.814 2°40.442 6.2 22 -0.1 100440 38
2009-12-17 09:15:02 51°10.81 2°40.435 5.7 311 -0.1 100440 38
2009-12-17 09:15:07 51°10.807 2°40.429 5.8 20 -0.1 100450 36
2009-12-17 09:15:12 51°10.803 2°40.422 6.2 303 -0.1 100450 36
2009-12-17 09:15:17 51°10.8 2°40.415 5.2 22 -0.1 100430 40
2009-12-17 09:15:22 51°10.797 2°40.409 6.1 311 -0.1 100430 40
2009-12-17 09:15:27 51°10.793 2°40.402 6.7 23 -0.1 100450 36
2009-12-17 09:15:32 51°10.789 2°40.396 5.6 310 -0.1 100450 36
2009-12-17 09:15:37 51°10.786 2°40.389 6 26 -0.1 100450 35
2009-12-17 09:15:42 51°10.782 2°40.383 6.6 286 -0.1 100450 35
2009-12-17 09:15:47 51°10.778 2°40.377 5.6 26 -0.1 100450 40
2009-12-17 09:15:52 51°10.775 2°40.37 6.1 309 -0.1 100450 40
2009-12-17 09:15:57 51°10.771 2°40.363 5.3 21 -0.1 100440 37
2009-12-17 09:16:02 51°10.768 2°40.356 4.3 311 -0.1 100440 37
2009-12-17 09:16:07 51°10.764 2°40.349 5.1 20 -0.1 100450 38
2009-12-17 09:16:12 51°10.761 2°40.342 6.4 310 -0.1 100450 38
2009-12-17 09:16:17 51°10.757 2°40.335 5.5 25 -0.1 100440 36
2009-12-17 09:16:22 51°10.754 2°40.328 6.3 305 -0.1 100440 36
2009-12-17 09:16:27 51°10.75 2°40.321 4.5 19 -0.1 100440 38
2009-12-17 09:16:32 51°10.747 2°40.314 5.7 309 -0.1 100440 38
2009-12-17 09:16:37 51°10.744 2°40.306 6.6 21 -0.1 100460 35
2009-12-17 09:16:42 51°10.741 2°40.299 6.3 309 -0.1 100460 35
2009-12-17 09:16:47 51°10.737 2°40.291 6.5 22 -0.1 100450 38
2009-12-17 09:16:52 51°10.734 2°40.284 5.8 311 -0.1 100450 38
2009-12-17 09:16:57 51°10.731 2°40.276 6.7 22 -0.1 100430 40
2009-12-17 09:17:02 51°10.728 2°40.269 6.4 309 -0.1 100430 40
2009-12-17 09:17:07 51°10.725 2°40.261 6.9 19 -0.1 100450 40
2009-12-17 09:17:12 51°10.722 2°40.254 6.6 307 -0.1 100450 40
2009-12-17 09:17:17 51°10.719 2°40.246 6 22 -0.1 100450 37
2009-12-17 09:17:22 51°10.716 2°40.238 6.2 311 -0.1 100450 37
2009-12-17 09:17:27 51°10.713 2°40.23 6.3 20 -0.1 100450 40
2009-12-17 09:17:32 51°10.71 2°40.223 5.8 304 -0.1 100450 40
2009-12-17 09:17:37 51°10.707 2°40.215 5.1 26 -0.1 100450 38
2009-12-17 09:17:42 51°10.705 2°40.207 4.8 280 -0.1 100450 38
2009-12-17 09:17:47 51°10.702 2°40.199 5.5 24 -0.1 100450 35
2009-12-17 09:17:52 51°10.699 2°40.192 5.3 311 -0.1 100450 35
2009-12-17 09:17:57 51°10.696 2°40.184 4.7 26 -0.1 100450 38
2009-12-17 09:18:02 51°10.693 2°40.176 5.3 311 -0.1 100450 38
2009-12-17 09:18:07 51°10.691 2°40.168 5.2 22 -0.1 100450 39
2009-12-17 09:18:12 51°10.688 2°40.16 5.7 309 -0.1 100450 39
2009-12-17 09:18:17 51°10.685 2°40.152 5.3 23 -0.1 100450 39
2009-12-17 09:18:22 51°10.682 2°40.145 4.4 303 -0.1 100450 39
2009-12-17 09:18:27 51°10.679 2°40.137 5.3 23 -0.1 100440 36
2009-12-17 09:18:32 51°10.677 2°40.129 5.4 310 -0.1 100440 36
2009-12-17 09:18:37 51°10.674 2°40.121 3.9 19 -0.1 100460 37
2009-12-17 09:18:42 51°10.671 2°40.114 3.7 308 -0.1 100460 37
2009-12-17 09:18:47 51°10.668 2°40.106 5.4 26 -0.2 100450 36
2009-12-17 09:18:52 51°10.665 2°40.098 5.1 308 -0.2 100450 36
2009-12-17 09:18:57 51°10.662 2°40.091 5.1 22 -0.2 100450 40
2009-12-17 09:19:02 51°10.659 2°40.083 5.8 310 -0.2 100450 40
2009-12-17 09:19:07 51°10.656 2°40.075 4.5 23 -0.2 100440 36
2009-12-17 09:19:12 51°10.653 2°40.068 4.5 309 -0.2 100440 36
2009-12-17 09:19:17 51°10.65 2°40.06 5.3 27 -0.2 100450 40
2009-12-17 09:19:22 51°10.646 2°40.053 4.1 306 -0.2 100450 40
2009-12-17 09:19:27 51°10.644 2°40.045 4.9 26 -0.1 100450 36
2009-12-17 09:19:32 51°10.64 2°40.038 3.7 309 -0.1 100450 36
2009-12-17 09:19:37 51°10.637 2°40.03 4.5 22 -0.1 100440 38
2009-12-17 09:19:42 51°10.634 2°40.023 3.8 281 -0.1 100440 38
2009-12-17 09:19:47 51°10.631 2°40.015 5 24 -0.1 100440 35
2009-12-17 09:19:52 51°10.628 2°40.008 5.8 303 -0.1 100440 35
2009-12-17 09:19:57 51°10.625 2°40 4.6 21 -0.1 100450 35
2009-12-17 09:20:02 51°10.622 2°39.993 4.6 306 -0.1 100450 35
2009-12-17 09:20:07 51°10.619 2°39.986 5.2 17 -0.1 100440 35
2009-12-17 09:20:12 51°10.617 2°39.978 5.5 310 -0.1 100440 35
2009-12-17 09:20:17 51°10.614 2°39.97 5.5 19 -0.1 100460 35
2009-12-17 09:20:22 51°10.611 2°39.963 5 309 -0.1 100460 35
2009-12-17 09:20:27 51°10.608 2°39.956 5.1 21 -0.1 100450 36
2009-12-17 09:20:32 51°10.605 2°39.948 5.6 307 -0.1 100450 36
2009-12-17 09:20:37 51°10.602 2°39.941 5.2 19 -999 100440 41
2009-12-17 09:20:42 51°10.599 2°39.933 4.8 309 -999 100440 41
2009-12-17 09:20:47 51°10.596 2°39.926 5.1 25 -999 100450 38
2009-12-17 09:20:52 51°10.593 2°39.918 5.8 305 -999 100450 38
2009-12-17 09:20:57 51°10.59 2°39.911 4.4 20 -999 100440 37
2009-12-17 09:21:02 51°10.587 2°39.904 4.4 310 -999 100440 37
2009-12-17 09:21:07 51°10.585 2°39.896 5.8 21 -999 100440 38
2009-12-17 09:21:12 51°10.581 2°39.89 5.2 304 -999 100440 38
2009-12-17 09:21:17 51°10.579 2°39.883 5.1 25 -999 100450 40
2009-12-17 09:21:22 51°10.576 2°39.876 4.9 304 -999 100450 40
2009-12-17 09:21:27 51°10.573 2°39.869 5.2 18 -999 100430 40
2009-12-17 09:21:32 51°10.571 2°39.861 5.3 303 -999 100430 40
2009-12-17 09:21:37 51°10.568 2°39.855 4.7 20 -999 100440 36
2009-12-17 09:21:42 51°10.565 2°39.848 4.5 282 -999 100440 36
2009-12-17 09:21:47 51°10.563 2°39.841 4.6 21 -999 100440 41
2009-12-17 09:21:52 51°10.56 2°39.834 4.8 307 -999 100440 41
2009-12-17 09:21:57 51°10.557 2°39.827 4.8 18 -999 100460 35
2009-12-17 09:22:02 51°10.555 2°39.82 4.1 304 -999 100460 35
2009-12-17 09:22:07 51°10.552 2°39.813 4.8 23 -999 100440 40
2009-12-17 09:22:12 51°10.55 2°39.806 5.1 309 -999 100440 40
2009-12-17 09:22:17 51°10.548 2°39.799 4.1 19 -999 100440 37
2009-12-17 09:22:22 51°10.545 2°39.792 5 304 -999 100440 37
2009-12-17 09:22:27 51°10.543 2°39.785 4.7 23 -999 100440 41
2009-12-17 09:22:32 51°10.541 2°39.778 4.8 309 -999 100440 41
2009-12-17 09:22:37 51°10.538 2°39.771 4.5 20 -999 100450 40
2009-12-17 09:22:42 51°10.536 2°39.763 5.5 303 -999 100450 40
2009-12-17 09:22:47 51°10.535 2°39.756 3.9 20 -999 100430 37
2009-12-17 09:22:52 51°10.532 2°39.749 3.7 304 -999 100430 37
2009-12-17 09:22:57 51°10.53 2°39.741 4.8 18 -999 100440 41
2009-12-17 09:23:02 51°10.528 2°39.734 5.2 303 -999 100440 41
2009-12-17 09:23:07 51°10.526 2°39.727 3.9 19 -999 100450 39
2009-12-17 09:23:12 51°10.524 2°39.72 5.2 305 -999 100450 39
2009-12-17 09:23:17 51°10.522 2°39.713 5.6 19 -999 100440 36